Hourly Data Report for October 01, 2014

All times are specified in Local Standard Time (LST). Add 1 hour to adjust for Daylight Saving Time where and when it is observed.

TORONTO INTL A
ONTARIO

43°40'36.000" N
79°37'50.000" W
173.40 m
6158731
71624
YYZ

Download Data

Hourly Data (October 2014)
Hourly Data Report for October 1, 2014
Temp Definition
°C
Dew Point Temp Definition
°C
Rel Hum Definition
%
Wind Dir Definition
10's deg

Wind Spd Definition
km/h
Visibility Definition
km
Stn Press Definition
kPa
Hmdx Definition


Wind Chill Definition


Weather Definition


TIME
00:00 Legend Double Dagger 15.9 14.1 89 11 19 9.7 99.58     Drizzle,Fog
01:00 Legend Double Dagger 15.7 12.7 82 8 18 16.1 99.63     Cloudy
02:00 Legend Double Dagger 15.4 12.2 81 8 17 19.3 99.62     LegendNANA
03:00 Legend Double Dagger 15.0 12.2 83 7 17 24.1 99.61     LegendNANA
04:00 Legend Double Dagger 15.0 12.2 83 8 12 19.3 99.64     Cloudy
05:00 Legend Double Dagger 15.0 12.4 84 6 12 19.3 99.66     LegendNANA
06:00 Legend Double Dagger 14.8 12.3 85 7 14 16.1 99.69     LegendNANA
07:00 Legend Double Dagger 14.6 12.7 88 5 10 9.7 99.75     Fog
08:00 Legend Double Dagger 14.8 12.9 88 7 10 8.1 99.79     Drizzle,Fog
09:00 Legend Double Dagger 14.7 13.1 90 11 11 8.1 99.82     Fog
10:00 Legend Double Dagger 14.9 13.5 91 9 7 6.4 99.85     Drizzle,Fog
11:00 Legend Double Dagger 15.1 14.0 93 10 10 4.8 99.85     Drizzle,Fog
12:00 Legend Double Dagger 15.1 13.8 92 10 10 4.8 99.84     Drizzle,Fog
13:00 Legend Double Dagger 14.9 13.6 92 8 13 6.4 99.81     Drizzle,Fog
14:00 Legend Double Dagger 15.3 13.9 91 9 9 6.4 99.78     Drizzle,Fog
15:00 Legend Double Dagger 15.2 14.1 93 9 10 4.8 99.77     Drizzle,Fog
16:00 Legend Double Dagger 15.2 13.9 92 8 13 6.4 99.77     Drizzle,Fog
17:00 Legend Double Dagger 15.1 14.0 93 9 11 6.4 99.75     Drizzle,Fog
18:00 Legend Double Dagger 15.2 14.1 93 8 8 4.8 99.79     Drizzle,Fog
19:00 Legend Double Dagger 15.6 14.0 90 9 9 12.9 99.80     Cloudy
20:00 Legend Double Dagger 15.6 13.6 88 5 8 12.9 99.79     LegendNANA
21:00 Legend Double Dagger 15.8 13.5 86 10 7 12.9 99.82     LegendNANA
22:00 Legend Double Dagger 15.8 13.7 87 9 4 12.9 99.84     Cloudy
23:00 Legend Double Dagger 15.5 13.9 90 12 12 9.7 99.86     Fog

Notes on Data Quality.

Legend

  • E = Estimated
  • M = Missing
  • NA = Not Available
  • ‡ = Partner data that is not subject to review by the National Climate Archives
Date modified: